Location: Oshawa
(43.9000°N, 78.8670°W)
Time: 14:50:43
(UTC-04:00)

Explorer 7 - Visible Passes

Search period start: 02 September 2014 00:00
Search period end: 12 September 2014 00:00
Orbit: 492 x 706 km, 50.3° (Epoch: 02 September)

Date Brightness Start Highest point End Pass type
(mag) Time Alt. Az. Time Alt. Az. Time Alt. Az.
02 Sep 9.0 03:26:46 23° NE 03:26:46 23° NE 03:28:38 10° ENE visible
02 Sep 7.5 05:03:27 13° NW 05:06:38 48° NNE 05:10:18 10° E visible
03 Sep 8.8 03:37:05 26° NE 03:37:05 26° NE 03:39:18 10° ENE visible
03 Sep 6.8 05:13:47 13° WNW 05:17:07 72° NNE 05:20:54 10° ESE visible
04 Sep 8.5 03:47:36 29° NE 03:47:36 29° NE 03:50:00 10° E visible
04 Sep 6.5 05:24:19 14° WNW 05:27:32 71° SSW 05:31:17 10° SE visible
05 Sep 8.3 03:58:21 32° ENE 03:58:21 32° ENE 04:00:42 10° E visible
05 Sep 7.0 05:35:05 15° WNW 05:37:51 40° SW 05:41:24 10° SSE visible
06 Sep 8.3 04:09:24 28° ESE 04:09:24 28° ESE 04:11:18 10° ESE visible
06 Sep 7.8 05:46:09 16° W 05:48:04 23° SW 05:51:05 10° S visible
07 Sep 8.8 04:20:45 17° SE 04:20:45 17° SE 04:21:42 10° SE visible
07 Sep 8.5 05:57:31 12° WSW 05:58:11 13° SW 05:59:51 10° SSW visible
07 Sep 8.9 21:39:42 10° SSW 21:41:01 17° SSW 21:41:01 17° SSW visible
08 Sep 8.9 20:12:20 10° SSE 20:13:44 11° SE 20:15:08 10° ESE visible
08 Sep 8.0 21:49:39 10° SW 21:52:19 33° SSW 21:52:19 33° SSW visible
09 Sep 8.4 20:20:31 10° S 20:23:51 20° SE 20:26:35 12° E visible
09 Sep 7.5 21:59:56 10° WSW 22:03:18 50° WSW 22:03:18 50° WSW visible
10 Sep 7.7 20:29:55 10° SSW 20:34:03 34° SE 20:37:17 14° E visible
10 Sep 7.7 22:10:26 10° WSW 22:13:59 50° WNW 22:13:59 50° WNW visible
11 Sep 7.1 20:39:50 10° SW 20:44:20 56° SE 20:47:44 15° ENE visible
11 Sep 8.2 22:21:05 10° W 22:24:25 39° NW 22:24:25 39° NW visible
